Location: Unnamed
(45.1820°N, 67.3015°W)
Time: 08:26:47
(UTC-04:00)

ISS - Pass Details

Date: 14 February 2026
Orbit: 416 x 427 km, 51.6° (Epoch: 6 March)

Event Time Altitude Azimuth Distance (km) Brightness Sun altitude
Exits shadow 05:58:26 16° 201° (SSW) 1,187 -1.7 -17.0°
Maximum altitude 06:00:41 35° 141° (SE) 693 -2.3 -16.6°
Drops below altitude 10° 06:03:46 10° 74° (ENE) 1,493 0.2 -16.1°
Sets 06:05:58 0° 65° (ENE) 2,358 1.2 -15.7°
